Retour au catalogue

STARLINK-35191

ActifCommunicationsSSO
NORAD 65594·PAYLOAD·🇺🇸 United States

Lancé Sep 13, 2025 depuis Cape Canaveral Space Force Station

Loading…

Prochains Passages (prochaines 24 heures)

TLE

FraisSource: CelesTrak SupGP

Époque: Sep 14, 2026, 21:14 UTC

1 65594C 25207C   26257.88520833  .01590200  00000+0  95579-1 0  2573
2 65594  97.2844 320.5261 0001538  71.0323 137.5563 15.10162268    10

Suivez STARLINK-35191 en temps réel avec AllMySat

Download on the App Store